Regional Weather Roundup
Issued by NWS Midland/Odessa, TX

Home | Current Version | Previous Version | Text Only | Print | Product List | Glossary On
Versions: 1 2 3 4 5 6 7 8 9 10 11 12 13 14 15 16 17 18 19 20 21 22 23 24 25 26 27 28 29 30 31 32 33 34 35 36 37 38 39 40 41 42 43 44 45 46 47 48 49 50
000
ASUS44 KMAF 290701
RWRMAF
MIDLAND AREA WEATHER ROUNDUP
NATIONAL WEATHER SERVICE MIDLAND TX
200 AM CDT FRI JUL 29 2016

...IN SOUTHWEST TEXAS AND SOUTHEAST NEW MEXICO...

CITY           SKY/WX    TMP DP  RH WIND       PRES   REMARKS
ALPINE         CLEAR     71  57  59 CALM      30.20F
ANDREWS        FAIR      73  64  72 S6        30.07F
ARTESIA        CLEAR     77  57  50 S8        30.08S
BIG SPRING     PTCLDY    73  67  83 CALM      30.06S
CARLSBAD       CLEAR     79  60  52 S8        30.07R
DRYDEN           N/A     76  67  73 E7        30.02F
FORT STOCKTON  CLEAR     76  62  62 S18       30.05S
GUAD PASS      CLEAR     71  56  58 E13       30.22S
HOBBS          CLEAR     73  63  68 S9        30.10F
MARFA          CLEAR     66  54  65 NE5       30.19F
MIDLAND AIRPK  CLEAR     76  68  76 S3        30.06R
MIDLAND INTL   PTCLDY    74  67  78 S3        30.05R
ODESSA         PTCLDY    75  66  73 S3        30.06F
PECOS          CLOUDY    76  67  72 E5        30.03S
PRESIDIO       FAIR      82  63  52 E6        30.04S
SEMINOLE       CLEAR     73  63  69 SW5       30.08F
SNYDER           N/A     75  66  72 W3        30.03F
WINK           CLOUDY    75  65  70 SE6       30.03S
$$
...OTHER STATIONS IN TEXAS...

CITY           SKY/WX    TMP DP  RH WIND       PRES   REMARKS
ABILENE        CLEAR     80  67  64 S10       29.99F
AMARILLO       CLEAR     74  61  63 SE12      30.08R
AUSTIN         PTCLDY    74  73  97 CALM      29.99S
BROWNSVILLE    PTCLDY    82  78  88 SE7       29.97F
CORPUS CHRISTI MOCLDY    81  78  91 SE7       29.97S
DALLAS FTW     PTCLDY    80  71  74 S8        29.95S
DEL RIO        CLOUDY    75  71  87 E8        29.99S
EL PASO        CLEAR     84  55  36 SE14      30.06R
HOUSTON INT    PTCLDY    76  74  93 CALM      29.99S
LUBBOCK        CLEAR     78  60  53 SW13      30.07S
SAN ANGELO     CLEAR     79  66  64 S13       30.02S
SAN ANTONIO    MOCLDY    74  68  81 NE3       30.01S
WACO           CLEAR     79  72  79 SE9       29.98S
WICHITA FALLS  NOT AVBL
$$
...OTHER LOCATIONS IN NEW MEXICO...

CITY           SKY/WX    TMP DP  RH WIND       PRES   REMARKS
ALAMAGORDO     CLEAR     82  54  36 S6G23     30.10R
ALBUQUERQUE    PTCLDY    78  46  32 SE8       30.14R
CANNON AFB     CLEAR     72  60  65 SW7       30.12S
CLOVIS         CLEAR     72  55  56 S8        30.12S
HOLLOMAN AFB   PTCLDY    81  54  38 S15       30.07R
ROSWELL        CLEAR     75  57  53 SW7       30.07S
RUIDOSO          N/A     64  46  52 CALM      30.34S
SANTA FE       CLEAR     75  44  33 SE16      30.23R
TRUTH OR CONSE CLEAR     82  49  31 SW7       30.12R
TUCUMCARI      PTCLDY    79  53  40 S10       30.07R
$$




USA.gov is the U.S. government's official web portal to all federal, state and local government web resources and services.